Погода во Вьедме

Аргентина     40°48′55″S   63°00′14″W
темп.,
°C
ветер,
м/с
пор.,
м/с
влажн.,
%
обл.,
%
осадки,
мм/ч
давл.,
гПа
погр.,
м
20 июня, вс
вс2000:00+4ссв368897 0.0 1021175
03:00+3с35944 0.0 102082
06:00+3ссз339767 0.0 101945
09:00+3с339291 0.0 101935
12:00+9ссз575541 0.0 1019440
15:00+12сз56455 0.0 1017826
18:00+9ссз445622 0.0 101732
21:00+7с496843 0.0 1017142
21 июня, пн
пн2100:00+7ссз5127595 0.0 1017222
03:00+7с6137850 0.0 1016267
06:00+6с6138568 0.0 1015250
09:00+6с614857 0.0 1015278
12:00+11ссз8135680 0.0 1015589
15:00+15ссз912415 0.0 1013906
18:00+13ссз61250100 0.0 1013335
21:00+12ссз6145591 0.0 1014395
22 июня, вт
вт2200:00+11ссз61462100 0.0 1015366
03:00+10ссз61267100 0.0 1016307
06:00+10с4968100 0.0 1016221
09:00+8с478087 0.0 1017130
12:00+12с6864100 0.0 1017365
15:00+15с71059100 0.0 1015745
18:00+13ссв61268100 0.0 1014377
21:00+12ссв71570100 0.0 1014524
23 июня, ср
ср2300:00+11с71575100 0.0 1014600
03:00+10ссв71682100 0.0 1012564
06:00+10ссв61483100 0.0 1012517
09:00+10ссв61285100 0.0 1011469
12:00+13с71176100 0.0 1011605
15:00+15сз5764100 0.0 1009788
18:00+13сз2274100 0.0 100916
21:00+11ссз238131 0.0 100915
24 июня, чт
чт2400:00+10сз34872 0.0 101045
03:00+8зюз33920 0.0 100931
06:00+7зюз46905 0.0 100986
09:00+6зсз51191100 0.0 1008216
12:00+13зсз45680 0.0 1010540
15:00+14з67415 0.0 10071017
18:00+11з4844100 0.0 1007163
21:00+10зсз5114699 0.0 1006316